Regional Weather Roundup
Issued by NWS Goodland, KS

Home | Current Version | Previous Version | Text Only | Print | Product List | Glossary Off
Versions: 1 2 3 4 5 6 7 8 9 10 11 12 13 14 15 16 17 18 19 20 21 22 23 24 25 26 27 28 29 30 31 32 33 34 35 36 37 38 39 40 41 42 43 44 45 46 47 48 49 50

000
ASUS43 KGLD 280908
RWRGLD

GOODLAND FORECAST AREA HOURLY WEATHER ROUNDUP
NATIONAL WEATHER SERVICE GOODLAND KS
300 AM MDT SUN AUG 28 2016

...OFFICIAL OBSERVATIONS...

CITY           SKY/WX    TMP DP  RH WIND       PRES   REMARKS
GOODLAND KS    CLOUDY    62  59  90 S6        30.07R
HILL CITY KS   MOCLDY    68  64  87 W3        30.06R
IMPERIAL NEB   CLOUDY    61  60  97 SE7       30.06F
MCCOOK NEB     CLOUDY    65  63  93 E5        30.05S
AKRON CO       CLOUDY    57  52  83 SW6       30.11R
BURLINGTON CO  PTCLDY    65  56  72 SW15      30.10R
LIMON CO       CLOUDY    52  51  97 S5        30.17R
$$

...UNOFFICIAL OBSERVATIONS...

CITY           SKY/WX    TMP DP  RH WIND       PRES   REMARKS
COLBY KS       CLEAR     64  64 100 SE5       30.08S
LENORA KS        N/A     68  32  26 MISG        N/A
NORTON KS      CLEAR     68  63  83 SE5       30.06
SHARON SPRINGS   N/A     63  60  91 SW7         N/A
TRENTON NEB      N/A     63  32  31 MISG        N/A
KIT CARSON CO    N/A     62  55  77 MISG        N/A
YUMA CO          N/A     53  50  89 CALM        N/A
$$




USA.gov is the U.S. government's official web portal to all federal, state and local government web resources and services.